Location: Silverdale
(47.6506°N, 122.6941°W)
Time: 15:10:44
(UTC+00:00)

Explorer 7 - All Passes

Search period start: 26 September 2022 00:00
Search period end: 06 October 2022 00:00
Orbit: 482 x 668 km, 50.3° (Epoch: 25 September)

Date Brightness Start Highest point End Pass type
(mag) Time Alt. Az. Time Alt. Az. Time Alt. Az.
26 Sep - 00:09:34 10° W 00:14:09 62° N 00:18:28 10° ENE daylight
26 Sep - 01:50:21 10° WNW 01:54:50 80° NNE 01:59:02 10° ESE daylight
26 Sep - 03:31:05 10° W 03:34:59 34° SW 03:38:40 10° SSE visible
26 Sep - 20:51:37 10° SSW 20:55:51 32° SE 20:59:58 10° E daylight
26 Sep - 22:31:17 10° WSW 22:36:02 88° NNW 22:40:33 10° ENE daylight
27 Sep - 00:12:08 10° W 00:16:43 61° N 00:21:01 10° E daylight
27 Sep - 01:52:51 10° WNW 01:57:19 85° SSW 02:01:31 10° ESE daylight
27 Sep - 03:33:49 10° W 03:37:17 24° SW 03:40:34 10° SSE visible
27 Sep - 19:17:27 10° SE 19:18:35 11° SE 19:19:43 10° ESE daylight
27 Sep - 20:53:39 10° SW 20:58:11 44° SSE 21:02:35 10° ENE daylight
27 Sep - 22:33:48 10° W 22:38:33 75° NNW 22:43:03 10° ENE daylight
28 Sep - 00:14:41 10° WNW 00:19:16 63° N 00:23:35 10° E daylight
28 Sep - 01:55:21 10° WNW 01:59:47 66° SSW 02:03:55 10° SE daylight
28 Sep - 03:36:46 10° W 03:39:30 17° SW 03:42:09 10° S visible
28 Sep - 19:17:49 10° S 19:20:46 16° SE 19:23:41 10° E daylight
28 Sep - 20:55:52 10° SW 21:00:34 58° SSE 21:05:08 10° ENE daylight
28 Sep - 22:36:22 10° W 22:41:04 67° N 22:45:33 10° ENE daylight
29 Sep - 00:17:12 10° WNW 00:21:49 69° N 00:26:08 10° E daylight
29 Sep - 01:57:52 10° WNW 02:02:10 49° SSW 02:06:13 10° SE daylight
29 Sep - 03:40:28 10° WSW 03:41:40 11° SW 03:42:51 10° SSW visible
29 Sep - 19:19:12 10° S 19:23:00 23° SE 19:26:43 10° E daylight
29 Sep - 20:58:12 10° WSW 21:03:00 75° SSE 21:07:37 10° ENE daylight
29 Sep - 22:38:55 10° W 22:43:36 62° N 22:48:04 10° ENE daylight
30 Sep - 00:19:42 10° WNW 00:24:19 80° NNE 00:28:40 10° ESE daylight
30 Sep - 02:00:27 10° WNW 02:04:31 35° SW 02:08:20 10° SSE daylight
30 Sep - 19:20:59 10° SSW 19:25:15 32° SE 19:29:28 10° E daylight
30 Sep - 21:00:38 10° WSW 21:05:27 89° NNW 21:10:06 10° ENE daylight
30 Sep - 22:41:28 10° W 22:46:09 61° N 22:50:36 10° E daylight
01 Oct - 00:22:11 10° WNW 00:26:48 85° SSW 00:31:08 10° ESE daylight
01 Oct - 02:03:07 10° W 02:06:47 25° SW 02:10:15 10° SSE daylight
01 Oct - 17:46:51 10° SE 17:48:00 11° SE 17:49:09 10° ESE daylight
01 Oct - 19:23:00 10° SW 19:27:35 44° SSE 19:32:04 10° ENE daylight
01 Oct - 21:03:07 10° W 21:07:56 76° NNW 21:12:35 10° ENE daylight
01 Oct - 22:44:00 10° WNW 22:48:41 64° N 22:53:09 10° E daylight
02 Oct - 00:24:39 10° WNW 00:29:14 68° SSW 00:33:31 10° SE daylight
02 Oct - 02:06:01 10° W 02:09:00 18° SW 02:11:51 10° S daylight
02 Oct - 17:47:11 10° S 17:50:09 16° SE 17:53:06 10° E daylight
02 Oct - 19:25:11 10° SW 19:29:56 58° SSE 19:34:35 10° ENE daylight
02 Oct - 21:05:39 10° W 21:10:26 68° N 21:15:04 10° ENE daylight
02 Oct - 22:46:30 10° WNW 22:51:13 69° N 22:55:40 10° E daylight
03 Oct - 00:27:09 10° WNW 00:31:37 51° SSW 00:35:48 10° SE daylight
03 Oct - 02:09:29 10° WSW 02:11:08 12° SW 02:12:45 10° SSW daylight
03 Oct - 17:48:33 10° S 17:52:20 23° SE 17:56:07 10° E daylight
03 Oct - 19:27:29 10° WSW 19:32:20 75° SSE 19:37:04 10° ENE daylight
03 Oct - 21:08:11 10° W 21:12:58 63° N 21:17:33 10° ENE daylight
03 Oct - 22:48:58 10° WNW 22:53:42 79° NNE 22:58:11 10° ESE daylight
04 Oct - 00:29:42 10° WNW 00:33:56 37° SW 00:37:55 10° SSE daylight
04 Oct - 17:50:18 10° SSW 17:54:35 32° SE 17:58:51 10° E daylight
04 Oct - 19:29:54 10° WSW 19:34:46 89° NNW 19:39:31 10° ENE daylight
04 Oct - 21:10:43 10° W 21:15:29 62° N 21:20:04 10° E daylight
04 Oct - 22:51:26 10° WNW 22:56:10 86° SSW 23:00:38 10° ESE daylight
05 Oct - 00:32:21 10° W 00:36:11 27° SW 00:39:50 10° SSE daylight
05 Oct - 16:16:18 10° SE 16:17:19 11° SE 16:18:22 10° ESE daylight
05 Oct - 17:52:17 10° SW 17:56:52 43° SSE 18:01:25 10° ENE daylight
05 Oct - 19:32:22 10° WSW 19:37:13 77° NNW 19:41:58 10° ENE daylight
05 Oct - 21:13:13 10° WNW 21:18:00 64° N 21:22:35 10° E daylight
05 Oct - 22:53:53 10° WNW 22:58:34 69° SSW 23:03:01 10° ESE daylight
